EN

Hourly Weather Alpinopolis

Today, 24 January, Sunday

Time Temperature Precipitation Wind Pressure Humidity
00:00 +20°C° 0 mm 1 mps 689 mmHg 92%
01:00 +19°C° 0 mm 1 mps 688 mmHg 93%
02:00 +19°C° 0 mm 1 mps 688 mmHg 94%
03:00 +19°C° 0 mm 1 mps 687 mmHg 96%
04:00 +18°C° 0 mm 1 mps 688 mmHg 96%
05:00 +18°C° 0 mm 1 mps 688 mmHg 96%
06:00 +18°C° 0 mm 1 mps 688 mmHg 97%
07:00 +19°C° 0 mm 2 mps 688 mmHg 91%
08:00 +20°C° 0 mm 2 mps 689 mmHg 86%
09:00 +22°C° 0 mm 3 mps 689 mmHg 81%
10:00 +24°C° 0 mm 3 mps 689 mmHg 75%
11:00 +26°C° 0 mm 3 mps 689 mmHg 70%
12:00 +27°C° 0 mm 3 mps 689 mmHg 64%
13:00 +28°C° 0.1 mm 3 mps 689 mmHg 63%
14:00 +28°C° 0.1 mm 3 mps 688 mmHg 61%
15:00 +28°C° 0.1 mm 3 mps 687 mmHg 60%
16:00 +27°C° 0 mm 3 mps 687 mmHg 65%
17:00 +26°C° 0 mm 2 mps 687 mmHg 71%
18:00 +25°C° 0 mm 2 mps 686 mmHg 76%
19:00 +24°C° 0 mm 2 mps 687 mmHg 79%
20:00 +22°C° 0 mm 1 mps 687 mmHg 82%
21:00 +21°C° 0 mm 1 mps 687 mmHg 85%
22:00 +20°C° 0 mm 1 mps 687 mmHg 86%
23:00 +20°C° 0 mm 1 mps 687 mmHg 86%

Tomorrow, 25 January, Monday

Time Temperature Precipitation Wind Pressure Humidity
00:00 +20°C° 0 mm 1 mps 687 mmHg 87%
01:00 +19°C° 0 mm 1 mps 687 mmHg 89%
02:00 +19°C° 0 mm 1 mps 686 mmHg 90%
03:00 +19°C° 0 mm 1 mps 686 mmHg 92%
04:00 +19°C° 0 mm 1 mps 686 mmHg 93%
05:00 +19°C° 0 mm 1 mps 686 mmHg 94%
06:00 +18°C° 0 mm 1 mps 687 mmHg 95%
07:00 +19°C° 0 mm 2 mps 687 mmHg 89%
08:00 +21°C° 0 mm 2 mps 688 mmHg 82%
09:00 +24°C° 0 mm 3 mps 689 mmHg 76%
10:00 +25°C° 0.1 mm 3 mps 689 mmHg 73%
11:00 +27°C° 0.1 mm 2 mps 688 mmHg 69%
12:00 +28°C° 0.1 mm 2 mps 688 mmHg 66%
13:00 +28°C° 0.7 mm 2 mps 688 mmHg 67%
14:00 +28°C° 0.7 mm 2 mps 687 mmHg 68%
15:00 +28°C° 0.7 mm 2 mps 686 mmHg 69%
16:00 +27°C° 1.1 mm 2 mps 686 mmHg 74%
17:00 +26°C° 1.1 mm 1 mps 686 mmHg 79%
18:00 +26°C° 1.1 mm 1 mps 686 mmHg 84%
19:00 +24°C° 1.7 mm 1 mps 686 mmHg 87%
20:00 +23°C° 1.7 mm 1 mps 686 mmHg 89%
21:00 +21°C° 1.7 mm 1 mps 687 mmHg 92%
22:00 +21°C° 0.1 mm 1 mps 687 mmHg 92%
23:00 +21°C° 0.1 mm 1 mps 687 mmHg 92%

Day after tomorrow, 26 January, Tuesday

Time Temperature Precipitation Wind Pressure Humidity
00:00 +19°C° 0.1 mm 0 mps 687 mmHg 92%
01:00 +20°C° 0.3 mm 1 mps 687 mmHg 93%
02:00 +20°C° 0.3 mm 1 mps 686 mmHg 94%
03:00 +20°C° 0.3 mm 1 mps 686 mmHg 95%
04:00 +20°C° 0 mm 1 mps 686 mmHg 96%
05:00 +20°C° 0 mm 1 mps 686 mmHg 96%
06:00 +19°C° 0 mm 1 mps 687 mmHg 97%
07:00 +20°C° 0 mm 2 mps 687 mmHg 92%
08:00 +23°C° 0 mm 2 mps 688 mmHg 87%
09:00 +24°C° 0 mm 2 mps 688 mmHg 82%
10:00 +25°C° 0.1 mm 3 mps 688 mmHg 79%
11:00 +27°C° 0.1 mm 3 mps 688 mmHg 75%
12:00 +28°C° 0.1 mm 3 mps 688 mmHg 71%
13:00 +28°C° 0.7 mm 2 mps 688 mmHg 71%
14:00 +28°C° 0.7 mm 2 mps 687 mmHg 70%
15:00 +29°C° 0.7 mm 2 mps 687 mmHg 70%
16:00 +28°C° 1.8 mm 1 mps 687 mmHg 75%
17:00 +26°C° 1.8 mm 1 mps 686 mmHg 80%
18:00 +23°C° 1.8 mm 0 mps 686 mmHg 85%
19:00 +23°C° 1.1 mm 0 mps 686 mmHg 86%
20:00 +22°C° 1.1 mm 0 mps 686 mmHg 87%
21:00 +21°C° 1.1 mm 0 mps 687 mmHg 89%
22:00 +20°C° 0.5 mm 0 mps 687 mmHg 89%
23:00 +20°C° 0.5 mm 0 mps 687 mmHg 90%

27 January, Wednesday

Time Temperature Precipitation Wind Pressure Humidity
00:00 +22°C° 0.5 mm 1 mps 687 mmHg 91%
01:00 +21°C° 0.1 mm 1 mps 687 mmHg 92%
02:00 +21°C° 0.1 mm 1 mps 686 mmHg 94%
03:00 +21°C° 0.1 mm 1 mps 686 mmHg 95%
04:00 +21°C° 0.1 mm 1 mps 686 mmHg 95%
05:00 +21°C° 0.1 mm 1 mps 686 mmHg 96%
06:00 +20°C° 0.1 mm 1 mps 687 mmHg 97%
07:00 +21°C° 0 mm 2 mps 687 mmHg 93%
08:00 +23°C° 0 mm 2 mps 687 mmHg 88%
09:00 +24°C° 0 mm 2 mps 688 mmHg 84%
10:00 +26°C° 0 mm 2 mps 688 mmHg 79%
11:00 +27°C° 0 mm 2 mps 688 mmHg 74%
12:00 +28°C° 0 mm 2 mps 688 mmHg 68%
13:00 +28°C° 1 mm 2 mps 687 mmHg 70%
14:00 +28°C° 1 mm 2 mps 687 mmHg 71%
15:00 +28°C° 1 mm 1 mps 687 mmHg 73%
16:00 +28°C° 1.3 mm 1 mps 686 mmHg 77%
17:00 +27°C° 1.3 mm 1 mps 686 mmHg 82%
18:00 +24°C° 1.3 mm 0 mps 686 mmHg 86%
19:00 +23°C° 0.3 mm 0 mps 686 mmHg 87%
20:00 +22°C° 0.3 mm 0 mps 686 mmHg 88%
21:00 +21°C° 0.3 mm 0 mps 686 mmHg 89%
22:00 +20°C° 0.1 mm 0 mps 686 mmHg 90%
23:00 +20°C° 0.1 mm 0 mps 686 mmHg 91%

28 January, Thursday

Time Temperature Precipitation Wind Pressure Humidity
00:00 +20°C° 0.1 mm 0 mps 686 mmHg 92%
01:00 +21°C° 0.1 mm 1 mps 686 mmHg 92%
02:00 +21°C° 0.1 mm 1 mps 685 mmHg 93%
03:00 +21°C° 0.1 mm 1 mps 685 mmHg 93%
04:00 +21°C° 0.1 mm 1 mps 685 mmHg 94%
05:00 +21°C° 0.1 mm 1 mps 686 mmHg 94%
06:00 +21°C° 0.1 mm 1 mps 686 mmHg 95%
07:00 +22°C° 0.1 mm 1 mps 686 mmHg 92%
08:00 +23°C° 0.1 mm 1 mps 686 mmHg 88%
09:00 +24°C° 0.1 mm 1 mps 687 mmHg 85%
10:00 +25°C° 0.3 mm 2 mps 687 mmHg 80%
11:00 +26°C° 0.3 mm 2 mps 687 mmHg 76%
12:00 +27°C° 0.3 mm 3 mps 687 mmHg 71%
13:00 +27°C° 0.4 mm 2 mps 686 mmHg 72%
14:00 +27°C° 0.4 mm 2 mps 686 mmHg 73%
15:00 +27°C° 0.4 mm 2 mps 685 mmHg 74%

29 January, Friday

Time Temperature Precipitation Wind Pressure Humidity
Show more